Wetbulb
64.87 62.93 63.65 62.06 61.51 61.21 61.04 62.13 64.48 64.13 64.17 63.96 63.65 63.46 63.08 61.68 60.94 60.63 60.06 59.99 60.10 59.71
62.12 62.78 62.08 62.74 62.44 62.50 64.20 60.85 61.56 61.39 61.56 61.75 61.64 61.34 61.24 59.62 59.30 60.10 60.03 59.50 59.56 59.07
61.90 61.87 61.68 62.72 61.84 61.40 62.02 62.12 61.34 60.93 60.58 60.28 60.15 60.28 59.96 58.81 58.88 58.67 58.23 57.90 57.60 57.27
60.69 60.71 61.32 61.22 61.15 60.96 61.80 60.96 59.64 59.20 58.87 58.68 58.65 59.09 58.80 58.54 57.81 56.77 56.32 56.77 56.62 56.04
60.83 61.00 60.77 60.40 60.33 60.72 59.68 59.92 58.86 58.40 57.90 57.69 57.50 57.57 56.93 55.98 56.34 55.43 54.90 55.08 54.72 54.56
60.34 59.97 59.98 59.31 59.47 59.04 58.17 57.71 57.90 57.35 56.93 56.35 56.18 56.15 56.14 55.59 55.27 54.93 54.46 53.74 52.83 52.50
57.28 57.60 57.49 58.04 57.94 57.59 57.30 56.32 55.81 55.74 55.88 55.69 55.69 55.28 54.98 54.40 53.72 53.33 52.79 52.44 51.78 51.13
55.92 56.39 56.32 56.24 56.85 56.80 56.03 54.99 54.63 54.29 54.56 54.75 54.54 53.96 52.96 52.62 52.10 51.32 50.34 50.76 50.72 50.61
54.58 54.76 54.78 55.22 55.29 55.21 53.74 53.60 53.80 53.35 53.72 53.27 53.05 49.00 48.47 49.50 50.50 49.51 48.26 47.71 48.79 49.63
52.78 52.14 52.31 52.36 51.70 51.33 51.21 51.86 52.41 52.21 52.79 51.90 52.45 47.81 45.83 47.36 49.40 47.39 47.75 47.74 47.46 47.62
49.70 49.12 49.26 48.73 48.29 48.89 49.39 49.67 50.53 51.22 51.68 50.93 51.48 46.82 45.09 45.69 47.54 47.81 48.04 48.52 48.69 48.26
46.48 45.83 45.92 45.41 45.60 45.86 46.65 47.72 48.92 49.61 48.86 49.22 50.87 46.32 44.81 44.91 48.47 47.64 47.82 48.53 47.85 47.17
44.19 43.93 43.48 44.05 43.92 45.04 45.07 46.10 47.90 48.05 48.57 48.49 49.34 46.26 44.71 45.14 48.08 47.09 45.90 45.64 45.73 45.29
42.12 42.88 43.09 43.19 43.58 43.37 45.76 46.16 46.45 46.95 48.04 48.86 47.67 48.30 45.07 44.00 46.09 44.75 44.89 44.63 44.73 45.74
MSLP
1007.99 1008.51 1008.72 1009.31 1009.70 1009.87 1010.04 1009.83 1009.45 1009.60 1009.91 1010.16 1010.38 1010.52 1010.64 1011.04 1011.04 1010.96 1010.95 1010.67 1010.69 1010.33
1008.53 1009.09 1009.30 1009.62 1009.69 1009.82 1009.82 1010.01 1009.91 1010.16 1010.56 1010.57 1010.53 1010.63 1010.81 1010.83 1010.89 1010.83 1010.49 1010.32 1010.43 1010.28
1008.87 1009.19 1009.60 1009.81 1010.18 1010.26 1010.33 1010.52 1010.36 1010.33 1010.36 1010.01 1010.34 1010.55 1010.53 1010.80 1010.62 1010.36 1010.31 1010.23 1010.21 1009.94
1009.42 1009.59 1009.91 1010.19 1010.31 1010.42 1010.50 1010.28 1010.19 1010.30 1010.32 1010.20 1010.05 1010.28 1010.27 1010.23 1010.06 1009.95 1009.82 1009.74 1009.48 1009.30
1009.75 1010.06 1010.19 1010.20 1010.42 1010.31 1010.41 1010.35 1010.25 1009.83 1009.88 1009.55 1009.75 1009.74 1009.78 1009.55 1009.63 1009.26 1009.18 1009.06 1008.83 1008.64
1009.88 1010.11 1010.20 1010.33 1010.27 1010.18 1010.08 1009.91 1009.77 1009.58 1009.53 1009.39 1009.50 1009.18 1009.19 1009.10 1008.84 1008.68 1008.69 1008.90 1008.64 1008.64
1009.94 1010.11 1010.01 1010.00 1009.92 1009.89 1009.87 1009.86 1009.86 1009.80 1009.52 1009.46 1009.22 1009.07 1008.94 1008.73 1008.59 1008.63 1008.53 1008.44 1008.30 1008.28
1010.20 1010.13 1010.08 1009.97 1009.83 1009.70 1009.76 1009.79 1009.74 1009.58 1009.31 1009.09 1009.02 1008.84 1008.75 1008.84 1008.79 1008.54 1008.18 1007.95 1007.93 1007.67
1010.12 1010.02 1009.95 1009.80 1009.63 1009.59 1009.66 1009.67 1009.51 1009.29 1009.04 1009.02 1009.01 1008.82 1008.81 1008.73 1008.48 1008.29 1007.98 1007.69 1007.28 1006.79
1010.45 1010.42 1010.30 1010.20 1010.13 1010.08 1009.99 1009.71 1009.33 1009.08 1008.89 1008.88 1008.79 1008.59 1008.48 1008.31 1008.16 1007.97 1007.44 1006.94 1006.31 1005.84
1011.11 1011.00 1010.87 1010.77 1010.67 1010.51 1010.21 1009.74 1009.16 1008.84 1008.73 1008.61 1008.33 1008.25 1008.07 1007.81 1007.68 1007.12 1006.47 1005.99 1005.39 1004.84
1011.93 1011.71 1011.46 1011.22 1011.00 1010.73 1010.37 1009.81 1009.18 1008.79 1008.51 1008.20 1007.94 1007.83 1007.51 1007.29 1006.79 1006.17 1005.57 1004.92 1004.46 1004.05
1012.49 1012.13 1011.78 1011.45 1011.16 1010.84 1010.51 1009.70 1008.93 1008.47 1008.09 1007.90 1007.61 1007.29 1006.72 1006.36 1005.86 1005.31 1004.81 1004.42 1003.63 1002.91
1012.80 1012.27 1011.92 1011.33 1011.07 1010.65 1009.91 1009.32 1008.88 1008.32 1007.83 1007.42 1007.27 1006.57 1005.77 1005.36 1005.26 1004.98 1004.52 1003.73 1002.79 1001.90
Wind_Speed
7 5 4 7 5 4 4 5 7 6 5 5 5 5 5 5 6 8 8 11 10 10
6 6 5 5 4 3 3 4 5 5 5 5 6 6 6 7 8 8 8 10 10 10
4 3 3 2 3 3 4 5 5 5 6 6 6 7 7 8 8 8 7 7 10 10
4 4 4 3 4 4 5 5 6 7 8 8 8 8 8 8 10 11 11 11 11 12
2 2 3 4 5 5 6 6 7 7 9 9 10 8 9 11 11 12 12 11 12 13
3 4 4 5 6 6 8 8 9 9 10 10 11 11 9 11 11 10 8 10 11 12
6 7 7 7 7 7 7 9 10 10 11 12 11 10 9 10 11 10 10 11 13 14
6 7 7 7 7 6 6 8 10 11 11 10 9 9 9 11 10 12 13 13 14 16
9 10 9 9 9 7 8 9 10 10 10 8 8 12 13 10 12 13 13 15 16 16
10 11 10 10 11 10 10 11 11 10 9 9 11 11 11 16 13 10 13 16 16 15
13 12 12 11 11 11 11 12 10 8 10 11 10 10 14 16 11 12 16 16 15 15
13 13 12 12 11 11 11 12 10 9 13 13 11 14 17 11 12 12 15 13 13 15
12 12 12 11 11 10 11 12 10 11 12 13 13 16 17 15 9 12 9 13 16 21
12 12 11 12 10 11 11 11 11 12 12 11 13 16 18 15 9 7 9 11 12 13
Wind_Direction
40 80 73 62 44 9 356 341 11 6 352 333 324 315 316 297 290 290 286 291 293 295
63 50 41 42 31 314 337 339 356 344 301 300 303 296 294 291 287 279 283 283 283 280
66 81 64 12 315 321 305 289 295 294 292 300 290 281 278 275 273 280 289 294 290 287
33 6 350 334 304 287 290 307 305 299 294 290 290 278 273 276 280 274 273 271 271 275
13 318 308 315 302 301 291 284 282 288 285 290 290 287 281 280 273 271 273 277 275 277
355 318 302 292 294 307 303 297 293 295 297 296 289 289 283 277 277 286 305 307 304 304
343 326 317 304 295 287 300 315 313 301 298 288 284 286 296 305 300 303 305 309 300 291
311 300 297 295 293 299 308 302 296 292 286 291 297 293 308 309 300 296 295 295 292 285
323 317 314 312 310 320 321 304 291 287 287 305 303 305 294 302 306 303 298 289 284 283
330 322 329 330 326 327 318 307 295 291 293 294 284 286 307 303 297 284 282 284 283 281
333 327 327 329 321 316 307 303 298 299 299 289 287 292 288 285 281 277 282 280 281 282
332 323 321 314 312 306 308 304 304 302 293 292 297 299 290 277 284 283 281 283 290 290
321 318 313 310 307 305 290 287 292 296 294 299 296 297 282 277 281 281 292 287 283 279
316 316 307 302 295 290 294 301 299 293 292 294 299 284 274 273 284 274 288 290 287 283